FENGYUN 1C DEB

Satellite information

Favourite Embed

Satellite Type and Status

DEBRISIN ORBIT

Key statistics

Satellite FENGYUN 1C DEB at a glance.

Uptime

9714

Days in orbit

Revolutions

≈ 14.1

Per day

Orbit

SSO

Sun Synchronous Orbit

Inclination

99.7

Latest

Satellite identification and parameters

Extended collection of information and parameters for FENGYUN 1C DEB.

Object identification

Identified? True

Debris? True

Object name: FENGYUN 1C DEB

International designator: 1999-025DHF

Object number (NORAD): 33718

Object ID (CCSDS): 33718

Country: PEOPLES REPUBLIC OF CHINA (PRC)

Current information (Y/N): Y

RCS size: SMALL

Orbital parameters

Period: 102.268 minutes

Inclination: 99.6588 deg

SMA: 7244.148 km

Apoapsis: 936.904 km

Periapsis: 795.121 km

RAAN: 72.057 deg

Eccentricy: 0.00978602

Argument of periapsis: 323.1333 deg

Mean anomaly: 36.3133 deg

Mean motion: 14.08062105 rev/day

Mean motion (dot): 0.00004491 rev/day2

B* drag term: 0.0025519977 1/REarth

Two-line elements (TLE)

Creation date: Dec. 11, 2025, 7:14 p.m.

Reference frame: TEME

Reference center: EARTH

Epoch: Dec. 11, 2025, 12:53 p.m. UTC

TLE line 0: 0 FENGYUN 1C DEB

TLE line 1: 1 33718U 99025DHF 25345.53693425 .00004491 00000-0 25520-2 0 9997

TLE line 2: 2 33718 99.6588 72.0570 0097860 323.1333 36.3133 14.08062105691695

Live tracking on map

Real-time ground track for satellite FENGYUN 1C DEB.

In-orbit conjunctions

A list of the most updated potential collisions computed for object FENGYUN 1C DEB.

Target Orbit TCA Probability of collision Miss distance Type
SOLRAD 7A LEO 2025-09-29 00:49:01 0.0001311087 134.0 (m) PAYLOAD
COSMOS 1677 LEO 2024-11-03 04:34:44 0.0001551439 741.0 (m) PAYLOAD
SL-3 R/B LEO 2024-07-02 12:07:11 0.0002334668 472.0 (m) ROCKET BODY

Associated space launch

Chinese polar orbiting meteorological satellite

FENGYUN 1C DEB was lifted into orbit during the mission ‘Long March 4B | Feng Yun 1C’, on board a Long March 4B space rocket.

The launch took place on May 10, 1999, 1:33 a.m. from Launch Complex 7.

For more information about the launch, click the button.

Launch to space Long March 4B | Feng Yun 1C
Long March 4B | Feng Yun 1C

Agency: N/A

Status: Launch Successful

Launch date: May 10, 1999, 1:33 a.m. UTC

Rocket: Long March 4B

Launch pad: Launch Complex 7

Location: Taiyuan Satellite Launch Center, People's Republic of China

...

Latest news about this satellite

There are no fresh news available about this satellite. Check back as we update our databases every day.


Newsletter sign-up

Weekly statistics, charts and insights to help you stay on top of the space industry.